Regional Weather Roundup
Issued by NWS Albany, NY

Current Version | Previous Version | Graphics & Text | Print | Product List | Glossary Off
Versions: 1 2 3 4 5 6 7 8 9 10 11 12 13 14 15 16 17 18 19 20 21 22 23 24 25 26 27

000
ASUS41 KALY 192310
RWRALY

NEW YORK STATE HOURLY WEATHER ROUNDUP
NATIONAL WEATHER SERVICE ALBANY NY
700 PM EDT SAT APR 19 2014

NOTE: "FAIR" INDICATES FEW OR NO CLOUDS BELOW 12,000 FEET WITH NO
SIGNIFICANT WEATHER AND/OR NO OBSTRUCTIONS TO VISIBILITY.

NYZ032-033-038>043-046>054-057>066-NYZ062>081-200000-
EAST


CITY           SKY/WX    TMP DP  RH WIND       PRES   REMARKS
ALBANY         MOCLDY    56  22  26 NW12      30.32R
GLENS FALLS    CLEAR     55  23  28 N7        30.34R
POUGHKEEPSIE   PTCLDY    58  21  24 N12       30.28R
NEWBURGH       PTCLDY    57  27  30 NE12G18   30.29R
MONTGOMERY     CLEAR     57  26  30 NE10      30.27R
WHITE PLAINS   PTCLDY    60  19  20 N10       30.25R
ISLIP          MOCLDY    61  27  27 N10       30.24R
NEW YORK CITY  MOCLDY    61  24  24 E7        30.25R
CENTRAL PARK   PTCLDY    64  20  18 NE8       30.28R
$$

NYZ005>009-017-018-044>046-055-056-200000-
CENTRAL


CITY           SKY/WX    TMP DP  RH WIND       PRES   REMARKS
FULTON         CLEAR     48  27  44 N9        30.41R
SYRACUSE       PTCLDY    50  29  44 N9        30.40R
ROME           CLEAR     51  23  33 N7        30.38R
ELMIRA         PTCLDY    49  24  37 N9        30.36S
BINGHAMTON     PTCLDY    48  25  40 N13       30.33R
MONTICELLO     PTCLDY    52  18  25 NW10      30.31R
$$

NYZ026>034-041>043-200000-
NORTH


CITY           SKY/WX    TMP DP  RH WIND       PRES   REMARKS
WATERTOWN      CLEAR     44  30  57 W8        30.41R
FORT DRUM      NOT AVBL
MASSENA        CLEAR     49  20  31 NW7       30.41S
SARANAC LAKE   CLEAR     42  19  39 NW8       30.34R
PLATTSBURGH    CLEAR     47  22  37 N14       30.37R
$$

NYZ001>004-010>016-019>021-200000-
WEST


CITY           SKY/WX    TMP DP  RH WIND       PRES   REMARKS
NIAGARA FALLS  MOSUNNY   50  27  40 NE15      30.39F
BUFFALO        MOSUNNY   50  27  40 NE12      30.38F
DUNKIRK        SUNNY     46  28  49 N7        30.37F
JAMESTOWN      SUNNY     52  27  37 NE8       30.32F
WELLSVILLE     PTCLDY    50  22  33 NE8       30.34S
ROCHESTER      PTCLDY    49  27  42 NE10      30.41F
PENN YAN       CLEAR     48  26  42 N9        30.38F
$$

             KEY
       WCI = WIND CHILL INDEX
       VSB = VISIBILITY
       HX  = HEAT INDEX
$$



USA.gov is the U.S. government's official web portal to all federal, state and local government web resources and services.